FW4314 Weather Reports


time (UTC)temp
C
wind
direction
speed
KPH
gust
KPH
rain 1hr
cm
rain 24hr
cm
rain mn
cm
humidity
%
barometer
mb
20260507155522 23 308 4.8 9.7 0.00 0.20 0.00 37 1013.2
20260507154526 23 69 1.6 6.4 0.00 0.20 0.00 38 1013.4
20260507153524 23 44 1.6 6.4 0.00 0.20 0.00 38 1013.4
20260507152522 23 97 8.0 11.3 0.00 0.20 0.00 39 1013.4
20260507151521 23 0.0 0.0 0.00 0.20 0.00 38 1013.4
20260507150525 23 354 0.0 9.7 0.00 0.20 0.00 40 1013.4
20260507145522 23 129 3.2 9.7 0.00 0.20 0.00 40 1013.4
20260507144524 23 128 4.8 11.3 0.00 0.20 0.00 41 1013.4
20260507143523 22 82 3.2 9.7 0.00 0.33 0.00 42 1013.4
20260507142544 22 133 0.0 8.0 0.00 0.33 0.00 43 1013.4
20260507141523 22 336 3.2 14.5 0.00 0.33 0.00 43 1013.4
20260507140521 22 310 3.2 9.7 0.00 0.33 0.00 43 1014.4
20260507135525 22 201 1.6 11.3 0.00 0.43 0.00 44 1014.4
20260507134530 22 162 0.0 6.4 0.00 0.43 0.00 44 1014.4
20260507133529 22 304 4.8 9.7 0.00 0.43 0.00 45 1014.4
20260507132527 22 194 4.8 12.9 0.00 0.43 0.00 47 1014.4
20260507131524 21 110 1.6 6.4 0.00 0.43 0.00 48 1014.4
20260507130523 21 189 4.8 12.9 0.00 0.43 0.00 48 1014.4
20260507125520 20 333 6.4 9.7 0.00 0.43 0.00 48 1015.2
20260507124533 20 317 4.8 9.7 0.00 0.53 0.00 49 1015.4
20260507123531 20 295 4.8 11.3 0.00 0.53 0.00 50 1015.4
20260507122522 20 284 1.6 8.0 0.00 0.64 0.00 50 1015.4
20260507121527 21 237 1.6 11.3 0.00 0.64 0.00 51 1015.4
20260507120536 21 143 4.8 12.9 0.00 0.64 0.00 51 1015.4
20260507115523 20 177 3.2 9.7 0.00 0.64 0.00 53 1015.4
20260507114523 20 286 4.8 12.9 0.00 0.64 0.00 54 1015.4
20260507113533 19 0.0 0.0 0.00 0.64 0.00 55 1015.4
20260507112520 19 289 3.2 11.3 0.00 0.64 0.00 56 1015.4
20260507111529 18 0.0 1.6 0.00 0.64 0.00 57 1015.4
20260507110547 18 309 6.4 11.3 0.00 0.64 0.00 57 1015.4
20260507105528 18 315 0.0 9.7 0.00 0.64 0.00 59 1015.4
20260507104523 17 320 3.2 9.7 0.00 0.64 0.00 60 1015.4
20260507103601 18 351 4.8 12.9 0.00 0.64 0.00 60 1015.4
20260507102529 17 311 4.8 9.7 0.00 0.64 0.00 62 1016.3
20260507101531 17 308 1.6 9.7 0.00 0.64 0.00 63 1016.5
20260507100529 17 283 3.2 11.3 0.00 0.64 0.00 64 1016.5
20260507095546 17 286 3.2 9.7 0.00 0.64 0.00 65 1016.5
20260507094545 17 257 0.0 6.4 0.00 0.64 0.00 66 1016.5
20260507093523 17 325 6.4 11.3 0.00 0.64 0.00 66 1016.5
20260507092526 17 190 0.0 1.6 0.00 0.64 0.00 69 1016.5
20260507091520 16 0.0 0.0 0.00 0.64 0.00 71 1016.5
20260507090531 16 0.0 0.0 0.00 0.64 0.00 72 1016.5
20260507085525 16 208 3.2 6.4 0.00 0.64 0.00 74 1016.5
20260507084528 16 258 0.0 4.8 0.00 0.64 0.00 74 1016.5
20260507083525 16 0.0 0.0 0.00 0.64 0.00 76 1016.5
20260507082523 15 225 0.0 3.2 0.00 0.64 0.00 77 1015.7
20260507081521 15 0.0 0.0 0.00 0.64 0.00 77 1015.4
20260507080521 15 0.0 0.0 0.00 0.64 0.00 78 1016.5
20260507075524 15 165 0.0 0.0 0.00 0.64 0.00 79 1015.7
20260507074529 15 142 0.0 6.4 0.00 0.64 0.00 79 1015.4
20260507073527 15 124 1.6 6.4 0.00 0.64 0.00 81 1015.4
20260507072525 14 0.0 1.6 0.00 0.64 0.00 82 1016.2
20260507071526 14 113 0.0 0.0 0.00 0.64 0.00 83 1016.5
20260507070541 13 119 1.6 6.4 0.00 0.64 0.00 85 1015.4
20260507065540 13 53 0.0 4.8 0.00 0.64 0.00 86 1015.4
20260507064520 12 0.0 0.0 0.00 0.64 0.00 87 1015.4
20260507063526 12 113 0.0 0.0 0.00 0.64 0.00 88 1015.4
20260507062522 11 113 0.0 1.6 0.00 0.64 0.00 88 1015.4
20260507061539 11 0.0 0.0 0.00 0.64 0.00 88 1015.4
20260507060523 11 113 0.0 3.2 0.00 0.64 0.00 88 1015.4
20260507055521 11 0.0 0.0 0.00 0.64 0.00 88 1015.4
20260507054525 11 0.0 0.0 0.00 0.64 0.00 88 1015.4
20260507053532 10 158 0.0 3.2 0.00 0.64 0.00 88 1015.4
20260507052549 10 0.0 0.0 0.00 0.64 0.00 88 1015.4
20260507051528 10 135 0.0 1.6 0.00 0.64 0.00 88 1015.4
20260507050522 10 0.0 0.0 0.00 0.64 0.00 88 1015.4
20260507045540 10 0.0 0.0 0.00 0.64 0.00 88 1015.4
20260507044541 11 0.0 1.6 0.00 0.64 0.00 88 1015.4
20260507043520 11 0.0 0.0 0.00 0.64 0.00 88 1015.4
20260507042531 11 0.0 0.0 0.00 0.64 0.00 88 1015.4
20260507041529 11 180 0.0 3.2 0.00 0.64 0.00 88 1015.4
20260507040528 11 0.0 0.0 0.00 0.64 0.00 88 1015.4
20260507035546 11 0.0 0.0 0.00 0.64 0.00 88 1015.4
20260507034524 11 113 0.0 3.2 0.00 0.64 0.00 87 1015.4
20260507033522 11 0.0 0.0 0.00 0.64 0.00 87 1015.4
20260507032520 11 0.0 0.0 0.00 0.64 0.00 87 1015.4
20260507031525 11 0.0 0.0 0.00 0.64 0.00 87 1015.4
20260507030529 11 0.0 0.0 0.00 0.64 0.00 87 1015.4
20260507025522 11 0.0 0.0 0.00 0.64 0.00 87 1015.4
20260507024523 11 0.0 0.0 0.00 0.64 0.00 87 1015.4
20260507023524 11 0.0 0.0 0.00 0.64 0.00 87 1015.4
20260507022522 11 180 0.0 3.2 0.00 0.64 0.00 87 1015.4
20260507021522 11 180 0.0 4.8 0.00 0.64 0.00 87 1015.4
20260507020554 11 0.0 0.0 0.00 0.64 0.00 87 1015.4
20260507015534 11 179 1.6 8.0 0.00 0.64 0.00 87 1015.4
20260507014525 11 193 0.0 3.2 0.00 0.64 0.00 87 1015.4
20260507013526 11 189 0.0 3.2 0.00 0.64 0.00 87 1015.4
20260507012611 12 189 1.6 6.4 0.00 0.64 0.00 87 1015.4
20260507011554 12 198 3.2 9.7 0.00 0.64 0.00 87 1015.4
20260507010529 12 188 1.6 9.7 0.00 0.64 0.00 87 1015.4
20260507005535 12 191 1.6 6.4 0.00 0.64 0.00 87 1015.4
20260507004525 12 169 3.2 9.7 0.00 0.64 0.00 87 1015.4
20260507003549 12 174 1.6 4.8 0.00 0.64 0.00 87 1015.4
20260507002526 12 187 1.6 9.7 0.00 0.64 0.00 87 1015.4
20260507001547 12 179 4.8 9.7 0.00 0.64 0.00 87 1015.4
20260507000522 12 189 3.2 9.7 0.00 0.64 0.00 88 1015.4
20260506235520 12 175 6.4 11.3 0.00 0.64 0.00 88 1015.4
20260506234526 12 178 3.2 9.7 0.00 0.64 0.00 87 1015.4
20260506233521 12 173 1.6 8.0 0.00 0.64 0.00 87 1015.4
20260506232528 12 177 3.2 8.0 0.00 0.64 0.00 87 1015.4
20260506231526 12 166 3.2 11.3 0.00 0.74 0.00 87 1015.4
20260506230545 12 160 1.6 6.4 0.00 0.74 0.00 87 1015.4
20260506225525 12 142 0.0 6.4 0.00 0.74 0.00 87 1015.4
20260506224521 12 225 0.0 3.2 0.00 0.84 0.00 87 1015.4
20260506223533 12 190 1.6 8.0 0.00 0.84 0.00 87 1015.4
20260506222531 12 0.0 0.0 0.00 0.84 0.00 86 1015.4
20260506221528 12 182 3.2 6.4 0.00 0.84 0.00 86 1015.4
20260506220520 12 177 3.2 8.0 0.00 0.84 0.00 86 1015.4
20260506215524 12 189 3.2 8.0 0.00 0.84 0.84 87 1015.4
20260506214544 12 197 1.6 6.4 0.00 0.84 0.84 86 1015.4
20260506213521 12 205 0.0 6.4 0.00 0.84 0.84 86 1015.4
20260506212552 12 199 1.6 4.8 0.00 0.84 0.84 86 1015.4
20260506211607 12 205 1.6 8.0 0.00 0.84 0.84 86 1015.4
20260506210529 12 199 3.2 8.0 0.00 0.84 0.84 86 1015.4
20260506205530 12 194 3.2 9.7 0.00 0.84 0.84 86 1015.4
20260506204529 12 184 0.0 6.4 0.00 0.84 0.84 86 1015.4
20260506203527 12 170 0.0 8.0 0.00 0.84 0.84 86 1015.4
20260506202541 12 180 0.0 0.0 0.00 0.84 0.84 86 1015.4
20260506201520 12 162 0.0 6.4 0.00 0.84 0.84 85 1015.4
20260506200531 12 0.0 0.0 0.00 0.84 0.84 85 1015.4
20260506195525 12 180 0.0 4.8 0.00 0.84 0.84 85 1014.8
20260506194530 12 0.0 0.0 0.00 0.84 0.84 84 1014.4
20260506193520 13 0.0 0.0 0.00 0.84 0.84 84 1014.4
20260506192523 13 0.0 0.0 0.00 0.84 0.84 83 1014.4
20260506191521 13 0.0 0.0 0.00 0.84 0.84 83 1014.4
20260506190533 13 0.0 0.0 0.00 0.84 0.84 82 1014.4
20260506185533 13 0.0 0.0 0.00 0.84 0.84 81 1014.4
20260506184524 13 0.0 0.0 0.00 0.84 0.84 80 1014.4
20260506183520 13 0.0 0.0 0.00 0.84 0.84 79 1014.4
20260506182521 14 180 0.0 3.2 0.00 0.84 0.84 79 1013.8
20260506181543 14 183 1.6 6.4 0.00 0.84 0.84 78 1013.4
20260506180521 14 180 0.0 0.0 0.00 0.84 0.84 78 1013.4
20260506175535 15 184 1.6 8.0 0.00 0.84 0.84 77 1013.4
20260506174532 15 235 0.0 4.8 0.00 0.84 0.84 78 1013.4
20260506173542 15 200 1.6 6.4 0.00 0.84 0.84 78 1013.4
20260506172530 14 225 0.0 3.2 0.10 0.94 0.84 78 1013.4
20260506171531 14 312 0.0 4.8 0.10 0.94 0.84 78 1013.4
20260506170524 14 0.0 0.0 0.20 1.91 0.84 78 1013.4
20260506165521 13 0.0 0.0 0.20 4.47 0.84 77 1013.4
20260506164522 13 288 1.6 6.4 0.20 4.47 0.84 77 1013.4
20260506163522 14 8 0.0 3.2 0.20 4.47 0.84 77 1013.4
20260506162522 14 45 0.0 3.2 0.10 4.47 0.74 76 1013.4
20260506161527 15 0.0 0.0 0.10 4.57 0.74 75 1013.4
20260506160527 15 0.0 0.0 0.00 4.47 0.64 74 1013.4